ATLAS 5 CENTAUR DEB, 52943

Orbit data source: Space-Track

ATLAS 5 CENTAUR DEB, 52943 is space debris in GEO originally from a launch on Fri, 01 Jul 2022 UTC launched from the Air Force Eastern Test Range (AFETR). Debris objects in space refer to the collection of defunct objects orbiting the Earth. Examples of debris include non-operational satellites, rocket bodies, and fragments generated from explosions, collisions, or faulty payload assembly.

Not visible in the next 10 days
Identifier
52943, 2022-073D
Orbit
GEO
Country
Flag of USUS
Related business
Flag of USUnited Launch Alliance/Lockheed Martin (US)
Manufacturer
ULA Decatur
Mission
Spacecraft
Bus & Motor
Unknown
Mass
~100 kg wet, ~100 kg dry
Launch date (UTC)
2022-07-01 (4 years ago)
Launch vehicle
Unknown
Launch site
Air Force Eastern Test Range (AFETR)
Object type
Payload
Rocket body
Debris
Shape & HBR
Cyl, 0.8 m
Radar Cross Section
1.473 m²

Expand to show TLE details & history
Last TLE update: 3 days ago

TLE from 3 days ago
0 ATLAS 5 CENTAUR DEB
1 52943U 22073D   26170.36020607 -.00000007  00000-0  00000-0 0  9995
2 52943   3.7689  78.8241 0007413  44.8683 314.8800  0.98670713 11654
Epoch: 2026-06-19T08:38Z
TLE epoch observation values (Epoch: 2026-06-19T08:38:41.804Z)
Latitude
Longitude
41.26342°
Altitude
36,218.565 km
Speed
3.06 km/s
True Right ascension
05h 14m 06s
True Declination
0° 00' 00"
Sunlit
Object was in daylight at epoch
Visualization orbit readout
Latitude
Unknown
Longitude
Unknown
Altitude
Unknown
Speed
Unknown
Apparent Right ascension
Unknown
Apparent Declination
Unknown
Sunlit
N/A
Visualization observer readout
Local Sidereal Time
23:26:52
Azimuth
Unknown
Elevation
Unknown
Doppler factor
Unknown
Orbital elements
Apogee altitude
36,274.139 km
Perigee altitude
36,210.95 km
Semi-major axis
42,620.682 km
Eccentricity
0.00074
Inclination
3.7689°
RAAN
78.8241°
Arg. of periapsis
44.8683°
True anomaly
314.81977°
Mean anomaly
314.88°
Eccentric anomaly
314.84989°
Mean motion
0.24667 °/min
Orbital period
1,459.45 mins
BSTAR
0
Loading maneuver chart data...
Computing Atmospheric mass density...
Loading historical data...
Loading historical data...
Loading historical data...
Loading historical data...
Loading historical data...
Loading historical data...
Loading historical data...
Other satellites on launch #73 in the year 2022 (2022-07-01 UTC)

Documentation

Showing up to 5 results
|